Meteo pe oră la 2-e Itkulovo

Astăzi, 14 Iunie, Luni

Timp Temperatura Precipitaţii Vânt Presiune Umiditate
00:00 +17°C° 0 mm 2 m/s 717 mmHg 46%
01:00 +16°C° 0 mm 2 m/s 717 mmHg 48%
02:00 +16°C° 0 mm 2 m/s 717 mmHg 48%
03:00 +15°C° 0 mm 2 m/s 717 mmHg 49%
04:00 +15°C° 0 mm 2 m/s 717 mmHg 50%
05:00 +16°C° 0 mm 3 m/s 718 mmHg 49%
06:00 +18°C° 0 mm 3 m/s 718 mmHg 49%
07:00 +19°C° 0 mm 3 m/s 719 mmHg 48%
08:00 +20°C° 0 mm 4 m/s 719 mmHg 44%
09:00 +22°C° 0 mm 4 m/s 719 mmHg 41%
10:00 +25°C° 0 mm 5 m/s 719 mmHg 37%
11:00 +25°C° 0 mm 5 m/s 719 mmHg 35%
12:00 +26°C° 0 mm 5 m/s 719 mmHg 33%
13:00 +27°C° 0 mm 6 m/s 719 mmHg 30%
14:00 +27°C° 0 mm 5 m/s 719 mmHg 32%
15:00 +27°C° 0 mm 5 m/s 719 mmHg 34%
16:00 +27°C° 0 mm 4 m/s 718 mmHg 35%
17:00 +26°C° 0 mm 4 m/s 718 mmHg 42%
18:00 +25°C° 0 mm 3 m/s 718 mmHg 49%
19:00 +23°C° 0 mm 2 m/s 718 mmHg 56%
20:00 +21°C° 0 mm 2 m/s 717 mmHg 55%
21:00 +19°C° 0 mm 2 m/s 717 mmHg 53%
22:00 +18°C° 0 mm 2 m/s 717 mmHg 51%
23:00 +17°C° 0 mm 2 m/s 717 mmHg 51%

Mâine, 15 Iunie, Marţi

Timp Temperatura Precipitaţii Vânt Presiune Umiditate
00:00 +17°C° 0 mm 2 m/s 717 mmHg 50%
01:00 +16°C° 0 mm 2 m/s 717 mmHg 49%
02:00 +16°C° 0 mm 2 m/s 717 mmHg 51%
03:00 +15°C° 0 mm 2 m/s 717 mmHg 53%
04:00 +15°C° 0 mm 2 m/s 717 mmHg 55%
05:00 +17°C° 0 mm 2 m/s 717 mmHg 54%
06:00 +19°C° 0 mm 2 m/s 717 mmHg 54%
07:00 +21°C° 0 mm 2 m/s 718 mmHg 54%
08:00 +24°C° 0 mm 3 m/s 718 mmHg 49%
09:00 +25°C° 0 mm 3 m/s 718 mmHg 45%
10:00 +27°C° 0 mm 4 m/s 718 mmHg 40%
11:00 +27°C° 0 mm 4 m/s 717 mmHg 38%
12:00 +28°C° 0 mm 4 m/s 717 mmHg 36%
13:00 +29°C° 0 mm 3 m/s 717 mmHg 34%
14:00 +28°C° 0 mm 3 m/s 717 mmHg 37%
15:00 +28°C° 0 mm 4 m/s 716 mmHg 41%
16:00 +27°C° 0 mm 4 m/s 716 mmHg 44%
17:00 +26°C° 0 mm 3 m/s 716 mmHg 49%
18:00 +25°C° 0 mm 2 m/s 716 mmHg 53%
19:00 +24°C° 0 mm 1 m/s 715 mmHg 57%
20:00 +23°C° 0 mm 1 m/s 715 mmHg 56%
21:00 +22°C° 0 mm 1 m/s 715 mmHg 55%
22:00 +20°C° 0 mm 1 m/s 715 mmHg 53%
23:00 +20°C° 0 mm 1 m/s 715 mmHg 54%

Poimâine, 16 Iunie, Miercuri

Timp Temperatura Precipitaţii Vânt Presiune Umiditate
00:00 +19°C° 0 mm 1 m/s 715 mmHg 54%
01:00 +19°C° 0 mm 1 m/s 715 mmHg 55%
02:00 +19°C° 0 mm 1 m/s 714 mmHg 56%
03:00 +19°C° 0 mm 1 m/s 714 mmHg 57%
04:00 +18°C° 0 mm 1 m/s 714 mmHg 58%
05:00 +20°C° 0 mm 1 m/s 715 mmHg 57%
06:00 +22°C° 0 mm 1 m/s 715 mmHg 56%
07:00 +24°C° 0 mm 2 m/s 715 mmHg 55%
08:00 +25°C° 0 mm 2 m/s 715 mmHg 53%
09:00 +26°C° 0 mm 2 m/s 715 mmHg 51%
10:00 +27°C° 0 mm 3 m/s 715 mmHg 48%
11:00 +28°C° 0 mm 3 m/s 715 mmHg 45%
12:00 +28°C° 0 mm 4 m/s 715 mmHg 41%
13:00 +29°C° 0 mm 4 m/s 715 mmHg 37%
14:00 +28°C° 0 mm 3 m/s 714 mmHg 41%
15:00 +27°C° 0 mm 3 m/s 714 mmHg 44%
16:00 +27°C° 0 mm 2 m/s 714 mmHg 48%
17:00 +25°C° 0.1 mm 2 m/s 713 mmHg 53%
18:00 +24°C° 0.1 mm 1 m/s 713 mmHg 59%
19:00 +23°C° 0.1 mm 1 m/s 713 mmHg 64%
20:00 +21°C° 0 mm 2 m/s 713 mmHg 67%
21:00 +19°C° 0 mm 2 m/s 713 mmHg 71%
22:00 +18°C° 0 mm 3 m/s 713 mmHg 74%
23:00 +18°C° 0 mm 2 m/s 712 mmHg 74%

17 Iunie, Joi

Timp Temperatura Precipitaţii Vânt Presiune Umiditate
00:00 +17°C° 0 mm 2 m/s 712 mmHg 74%
01:00 +17°C° 0 mm 2 m/s 711 mmHg 74%
02:00 +17°C° 0 mm 2 m/s 711 mmHg 74%
03:00 +17°C° 0 mm 2 m/s 711 mmHg 74%
04:00 +17°C° 0 mm 2 m/s 711 mmHg 75%
05:00 +18°C° 0 mm 2 m/s 711 mmHg 72%
06:00 +20°C° 0 mm 2 m/s 711 mmHg 68%
07:00 +21°C° 0 mm 2 m/s 710 mmHg 65%
08:00 +23°C° 0 mm 2 m/s 710 mmHg 61%
09:00 +24°C° 0 mm 2 m/s 710 mmHg 57%
10:00 +25°C° 0 mm 3 m/s 710 mmHg 53%
11:00 +26°C° 0 mm 3 m/s 710 mmHg 52%
12:00 +27°C° 0 mm 4 m/s 710 mmHg 51%
13:00 +28°C° 0 mm 5 m/s 709 mmHg 49%
14:00 +26°C° 0.4 mm 5 m/s 709 mmHg 57%
15:00 +25°C° 0.4 mm 5 m/s 709 mmHg 64%
16:00 +23°C° 0.4 mm 5 m/s 709 mmHg 71%
17:00 +22°C° 0.1 mm 5 m/s 709 mmHg 76%
18:00 +21°C° 0.1 mm 5 m/s 709 mmHg 81%
19:00 +20°C° 0.1 mm 5 m/s 709 mmHg 86%
20:00 +19°C° 0 mm 5 m/s 709 mmHg 87%
21:00 +17°C° 0 mm 6 m/s 709 mmHg 88%
22:00 +16°C° 0 mm 6 m/s 709 mmHg 89%
23:00 +15°C° 0 mm 6 m/s 709 mmHg 89%

18 Iunie, Vineri

Timp Temperatura Precipitaţii Vânt Presiune Umiditate
00:00 +15°C° 0 mm 5 m/s 709 mmHg 90%
01:00 +14°C° 0 mm 5 m/s 709 mmHg 90%
02:00 +13°C° 0 mm 5 m/s 709 mmHg 89%
03:00 +12°C° 0 mm 5 m/s 710 mmHg 88%
04:00 +11°C° 0 mm 4 m/s 710 mmHg 87%
05:00 +12°C° 0 mm 5 m/s 710 mmHg 80%
06:00 +12°C° 0 mm 5 m/s 711 mmHg 74%
07:00 +13°C° 0 mm 5 m/s 711 mmHg 68%
08:00 +14°C° 0 mm 5 m/s 712 mmHg 59%
09:00 +16°C° 0 mm 6 m/s 712 mmHg 51%
10:00 +17°C° 0 mm 6 m/s 712 mmHg 42%
11:00 +19°C° 0 mm 6 m/s 713 mmHg 37%
12:00 +20°C° 0 mm 6 m/s 713 mmHg 33%
13:00 +21°C° 0 mm 6 m/s 713 mmHg 28%
14:00 +21°C° 0 mm 6 m/s 713 mmHg 28%
15:00 +21°C° 0 mm 6 m/s 714 mmHg 28%
16:00 +21°C° 0 mm 6 m/s 714 mmHg 28%
17:00 +19°C° 0 mm 6 m/s 714 mmHg 33%
18:00 +17°C° 0 mm 5 m/s 714 mmHg 38%
19:00 +17°C° 0 mm 4 m/s 715 mmHg 43%
20:00 +14°C° 0 mm 4 m/s 715 mmHg 47%
21:00 +11°C° 0 mm 3 m/s 716 mmHg 50%
22:00 +9°C° 0 mm 2 m/s 716 mmHg 54%
23:00 +9°C° 0 mm 2 m/s 716 mmHg 55%

19 Iunie, Sâmbătă

Timp Temperatura Precipitaţii Vânt Presiune Umiditate
00:00 +8°C° 0 mm 2 m/s 716 mmHg 57%
01:00 +8°C° 0 mm 2 m/s 717 mmHg 58%
02:00 +7°C° 0 mm 2 m/s 717 mmHg 61%
03:00 +7°C° 0 mm 2 m/s 717 mmHg 63%
04:00 +7°C° 0 mm 2 m/s 717 mmHg 65%
05:00 +9°C° 0 mm 3 m/s 717 mmHg 60%
06:00 +11°C° 0 mm 3 m/s 718 mmHg 54%
07:00 +14°C° 0 mm 4 m/s 718 mmHg 49%
08:00 +15°C° 0 mm 5 m/s 718 mmHg 48%
09:00 +17°C° 0 mm 6 m/s 718 mmHg 46%
10:00 +18°C° 0 mm 7 m/s 718 mmHg 45%
11:00 +20°C° 0 mm 7 m/s 717 mmHg 44%
12:00 +21°C° 0 mm 7 m/s 717 mmHg 43%
13:00 +22°C° 0 mm 7 m/s 717 mmHg 42%
14:00 +22°C° 0 mm 7 m/s 717 mmHg 44%
15:00 +22°C° 0 mm 7 m/s 717 mmHg 46%
16:00 +22°C° 0 mm 7 m/s 716 mmHg 48%
17:00 +21°C° 0 mm 7 m/s 716 mmHg 54%
18:00 +20°C° 0 mm 6 m/s 716 mmHg 59%
19:00 +19°C° 0 mm 6 m/s 716 mmHg 65%
20:00 +17°C° 0 mm 5 m/s 716 mmHg 73%
21:00 +15°C° 0 mm 4 m/s 715 mmHg 80%
22:00 +14°C° 0 mm 3 m/s 715 mmHg 88%
23:00 +14°C° 0 mm 3 m/s 715 mmHg 89%
Arată mai mult

Formular de consimțământ

Meteoprog și furnizorii noștri de servicii pot stoca și accesa date personale, precum cookies, identificatori de dispozitiv sau alte tehnologii similare pe dispozitivul dumneavoastră și procesa astfel de date pentru a personaliza conținutul și reclamele, dar și pentru a oferi caracteristici de social media și pentru a analiza traficul.

  • Stocarea și/sau accesarea informațiilor pe dispozitivul dumneavoastră

    Cookies, identificatori de dispozitiv sau alte informații pot fi stocate sau accesate pe dispozitiv în scopurile indicate mai sus.

  • Reclame și conținut personalizat, evaluarea reclamelor și a conținutului, informații despre audiențe și dezvoltarea produselor

    Reclamele și conținutul pot fi personalizate pe baza unui profil. Pot fi adăugate date suplimentare pentru a personaliza mai bine reclamele și conținutul. Performanța reclamelor și conținutului poate fi măsurată. Pot fi obținute informații despre utilizatorii care au văzut reclamele și conținutul. Aceste date pot fi utilizate pentru a dezvolta sau îmbunătăți experiența utilizatorilor, sistemele și software-ul.

Dând clic pe ‘Sunt de acord’, permiteți utilizarea cookie-urilor menționate, a identificatorilor de dispozitiv, balizelor web sau altor tehnologii similare. Setările pot fi modificate din browser-ul dispozitivului dumneavoastră.

În anumite scopuri, interesele legitime pot prima asupra consimțământului. Puteți citi mai multe informații în acest sens în Politica privind Confidențialitatea Datelor și Cookie.